THOR ABLESTAR DEB, 478

Orbit data source: Space-Track

THOR ABLESTAR DEB, 478 is space debris in LEO originally from a launch on Thu, 29 Jun 1961 UTC launched from the Air Force Eastern Test Range (AFETR). Debris objects in space refer to the collection of defunct objects orbiting the Earth. Examples of debris include non-operational satellites, rocket bodies, and fragments generated from explosions, collisions, or faulty payload assembly.

Loading next visibility...
THOR ABLESTAR DEB details
Identifier
478, 1961-015FQ
Orbit
LEO
Last TLE update9 hours ago
Origin
Flag of USUSAF SSD (US)
ManufacturerUnknown
MissionSpacecraft
Bus & MotorUnknown
MassUnknown
Launch date (UTC)
1961-06-29 (64 years ago)
Launch vehicleUnknown
Launch site
Air Force Eastern Test Range (AFETR)
Object type
Payload
Rocket body
Debris
Shape & HBRUnknown
Radar Cross SectionSmall (<0.1 m²)

Expand to show TLE details & history

TLE from 9 hours ago
0 THOR ABLESTAR DEB
1   478U 61015FQ  25024.63298794  .00022930  00000-0  30147-2 0  9996
2   478  66.0639 223.8011 0043168 275.0476  84.5715 14.79539425309024
Epoch: 2025-01-24T15:11Z
Definitive object data (Epoch: 2025-01-24T15:11:30.158Z)
Latitude-0.00001°
Longitude-128.26792°
Altitude630.149 km
Speed7.545 km/s
True Right ascension14h 55m 12s
True Declination0° 00' 00"
Sunlit
Object was in daylight at TLE epoch
Visualization TLE readout
Latitude34.0422°
Longitude33.31924°
Altitude654.714 km
Speed7.523 km/s
Apparent Right ascension03h 44m 15s
Apparent Declination-7° 47' 23"
Sunlit
Object is in daylight
Visualization observer readout
Local Sidereal Time01:14:37
Azimuth135.334° SSE
Elevation31.107°
Doppler factor1
Orbital elements
Apogee altitude659.442 km
Perigee altitude598.943 km
Semi-major axis7,007.33 km
Eccentricity0.0043168
Inclination66.0639°
RAAN223.8011°
Arg. of periapsis275.0476°
True anomaly85.0642°
Mean anomaly84.5715°
Eccentric anomaly84.81782°
Mean motion3.70011 °/min
BSTAR0.0030147
Orbital period97.29 mins
Loading maneuver chart data...

THOR ABLESTAR DEB Visibility forecast

Observer location: undefined°, undefined

Span
Click to sort rows by Start time (UTC) header in descending order
Start Az.
Max El. time (UTC)
Max El. Az.
Max El.
End time (UTC)
End Az.
6 mins2025-01-25 14:02:52.895Z159.821° S2025-01-25 14:04:52.895Z121.778° SE27.416°2025-01-25 14:08:52.895Z52.713° ENE
6 mins2025-01-25 15:42:52.895Z263.591° W2025-01-25 15:44:52.895Z300.204° NW25.537°2025-01-25 15:48:52.895Z6.69° NNE
4 mins2025-01-25 22:33:52.895Z22.1° NNE2025-01-25 22:34:52.895Z38.563° NE18.891°2025-01-25 22:37:52.895Z85.938° E
|